GFSWCAN_sfc_thetae_162.txt.gz
Theta_e
295 295 297 296 296 298 298 298 298 298 298 298 299 299 299 298 298 297 296 301 295 289 290 291 291 287 287 287 283 287 286 288 286 280 278 279 279 282 281 284 284 284 282 283 284 281 278 295 294 286 292 298 296 296
296 296 297 297 297 297 297 299 298 298 298 298 298 299 299 298 298 298 293 300 299 292 290 295 295 296 294 293 288 289 286 286 289 284 284 284 280 283 282 278 289 282 287 285 287 286 295 297 296 299 300 297 297 297
297 296 296 297 297 297 297 298 299 298 298 298 298 298 298 298 298 297 294 298 297 290 289 289 289 295 297 296 297 286 288 290 289 293 288 285 279 283 276 281 285 289 293 288 288 291 291 295 297 299 298 297 298 299
297 297 297 298 298 298 298 298 298 298 298 298 298 298 299 298 298 297 293 298 296 291 284 287 295 292 297 297 296 295 292 293 292 291 286 283 281 287 281 283 280 286 287 287 288 291 292 294 294 297 297 298 297 298
297 297 298 298 298 299 299 298 298 298 298 298 298 298 297 298 298 298 297 297 299 291 284 286 292 293 294 294 293 295 294 291 289 286 284 282 286 284 286 284 281 285 284 282 284 291 290 294 298 299 297 296 297 297
297 297 298 298 298 298 299 298 298 299 299 298 298 298 298 298 298 295 286 294 298 297 287 281 291 289 291 293 292 291 292 292 291 287 285 286 289 285 280 279 285 289 291 291 289 293 294 294 299 299 297 297 298 298
297 297 297 297 298 298 298 298 299 299 299 298 299 299 299 299 296 288 288 294 298 297 286 282 283 290 294 293 294 293 293 291 289 286 285 285 286 286 282 278 284 287 290 293 294 293 291 294 295 298 298 298 298 297
296 297 297 297 298 298 298 298 298 299 298 298 299 298 298 298 294 289 295 298 298 291 289 280 281 286 292 289 286 292 287 287 286 285 287 285 287 285 279 285 287 289 291 292 294 295 295 297 297 296 298 298 296 295
297 297 297 296 296 298 298 298 299 298 299 298 298 297 294 291 289 291 297 297 297 291 282 283 279 279 291 288 289 288 286 283 288 283 284 286 283 279 283 285 286 289 290 291 292 293 293 294 294 295 296 297 295 293
297 297 297 297 296 296 298 299 298 298 299 296 292 289 285 292 297 296 292 288 288 288 286 280 285 281 287 285 285 284 286 283 280 284 288 283 282 286 287 288 289 290 292 293 292 291 292 293 294 295 295 296 296 295
296 296 296 297 297 296 295 296 296 296 295 293 290 288 293 295 292 289 283 282 284 281 285 285 285 283 291 284 283 286 283 284 278 281 281 280 280 286 289 290 292 293 293 294 295 295 296 296 295 294 294 296 296 296
296 296 296 296 296 296 296 296 296 295 295 294 294 295 293 289 285 280 279 282 281 279 285 285 286 288 289 291 284 286 281 282 277 285 281 278 285 289 290 290 292 293 294 293 294 292 294 294 295 295 295 294 294 292
296 296 296 296 296 295 294 295 295 294 294 295 291 285 284 283 277 275 274 277 279 284 286 287 285 288 288 289 285 284 280 279 285 280 278 283 287 289 290 291 292 294 295 295 295 295 295 294 291 289 291 287 287 287
295 296 296 297 296 296 295 294 294 294 294 288 283 277 279 278 279 280 280 283 287 287 288 288 286 285 287 284 284 279 283 283 277 276 277 286 288 291 293 295 293 290 286 286 288 287 284 284 284 285 285 287 287 286
293 294 294 296 297 297 296 296 296 295 291 285 285 278 280 285 288 288 288 286 288 289 288 286 286 286 283 282 283 281 278 275 278 278 285 290 291 291 292 292 290 286 285 286 286 285 283 283 284 285 285 286 287 286
293 293 292 295 297 297 297 296 294 291 288 286 285 282 286 285 285 285 285 285 289 288 288 287 283 281 280 281 278 277 276 275 282 287 291 292 288 288 288 288 287 287 287 286 286 285 285 285 285 285 285 285 285 285
292 290 295 295 294 295 297 293 290 286 285 283 283 286 286 286 284 286 288 288 291 287 283 283 279 278 283 279 278 282 280 285 288 290 292 292 291 290 288 286 284 285 286 286 286 286 285 286 285 285 284 285 285 285
289 293 294 293 294 291 292 292 288 285 281 284 283 286 288 289 287 288 290 291 289 286 285 282 285 280 278 277 279 285 286 287 289 290 290 290 289 288 288 289 288 288 288 288 288 287 287 287 288 287 287 287 287 285
292 293 291 292 293 289 285 285 287 283 284 287 288 289 289 289 291 292 291 292 291 291 289 285 281 280 282 286 286 285 287 288 287 288 289 289 288 286 286 288 288 288 288 289 288 288 289 289 288 288 289 288 287 286
293 293 292 292 292 287 284 286 290 285 283 286 288 286 287 288 290 290 290 290 288 287 284 282 282 286 286 286 289 288 288 288 287 286 287 288 290 288 288 289 289 290 289 289 289 287 288 288 288 288 288 287 287 286
292 292 293 292 288 287 286 285 286 287 287 285 288 288 286 289 287 287 286 288 284 283 282 286 286 286 289 290 290 291 289 290 288 288 287 287 288 290 290 289 289 289 288 287 286 286 285 286 287 288 288 287 287 288
291 292 291 290 286 286 284 287 286 288 286 286 286 287 284 284 285 286 289 284 283 286 287 287 287 287 287 286 287 288 289 289 289 289 287 287 288 288 288 289 289 288 288 288 287 286 287 287 288 288 287 286 287 287
291 290 288 288 283 282 282 289 283 283 280 281 284 281 282 283 285 289 282 285 286 289 289 288 287 288 287 288 288 289 288 287 286 287 287 288 289 290 290 290 289 287 286 286 288 287 287 287 286 286 287 286 286 285
290 286 282 281 282 279 283 280 283 282 283 281 280 278 280 283 286 282 280 283 287 288 287 287 288 286 287 287 286 287 288 289 287 288 289 288 287 288 289 289 289 288 288 288 288 287 287 286 286 286 285 285 285 285
281 279 281 278 282 280 278 278 279 279 277 279 277 277 280 284 279 278 279 283 285 285 285 286 286 285 284 285 286 287 289 288 286 286 289 289 288 288 287 287 287 287 288 287 286 285 285 286 285 285 285 284 284 284
276 279 277 278 279 277 278 275 276 277 278 277 278 281 282 280 276 276 280 283 284 284 285 285 284 284 283 285 284 285 286 289 288 286 287 288 287 287 286 284 285 287 289 288 286 285 285 285 285 285 284 284 284 285
274 276 280 282 280 280 279 280 280 278 276 275 278 278 278 274 275 279 285 286 285 287 287 287 286 284 284 285 286 288 288 288 286 285 287 288 288 288 287 285 284 286 289 288 287 286 285 285 285 285 285 285 285 285
279 278 274 278 279 280 276 277 276 276 277 280 279 275 274 275 276 281 283 286 286 287 286 287 287 287 286 285 285 285 284 284 284 284 285 286 287 287 288 288 288 285 286 287 286 286 285 285 284 284 285 285 285 285
277 278 278 276 276 277 277 277 277 279 280 278 275 275 277 280 282 283 284 284 285 284 283 284 285 285 283 283 283 285 285 284 282 279 279 280 282 285 288 287 286 286 286 286 285 285 285 285 285 285 285 284 285 285
276 279 275 275 274 273 278 278 277 280 279 279 279 278 279 281 284 285 282 281 281 280 281 281 282 281 279 279 279 281 285 284 283 281 279 280 282 284 285 284 284 285 285 285 285 285 283 283 284 284 284 284 284 284
277 277 274 274 273 277 279 281 281 281 281 279 281 278 277 281 282 279 279 280 281 280 279 278 278 280 279 278 278 279 279 283 282 282 282 283 284 284 285 284 285 285 285 284 285 284 283 282 282 282 283 283 284 284
274 271 271 269 272 277 279 276 276 276 277 276 276 278 278 277 275 275 277 279 276 275 275 275 275 276 280 282 281 281 280 280 282 281 280 281 283 285 285 285 285 285 284 284 284 284 282 281 283 283 282 282 282 282
272 272 272 271 272 271 274 274 272 272 274 274 275 274 275 273 270 274 278 278 275 273 273 275 277 279 279 280 279 279 279 281 281 281 280 280 281 283 284 284 284 284 284 284 284 283 281 281 281 281 282 281 281 281

GFSWCAN_sfc_thetae_165.txt.gz
Theta_e
296 296 296 297 297 297 297 298 298 298 298 298 298 298 298 298 297 293 290 295 290 281 286 289 289 285 285 283 278 284 282 282 279 276 274 275 276 278 278 280 279 279 278 280 281 279 276 292 291 284 288 291 292 291
297 297 297 296 296 297 298 298 298 299 298 298 298 298 299 297 298 296 286 295 296 286 285 291 292 292 291 289 285 285 282 283 283 277 277 277 276 280 279 275 284 277 281 280 283 280 290 293 291 293 293 292 292 292
298 297 296 296 297 297 297 298 298 298 298 298 298 298 298 298 297 296 288 290 290 282 283 284 285 291 294 292 292 282 284 287 284 286 279 277 270 276 272 275 278 284 286 282 283 286 290 292 295 295 295 293 296 297
298 296 297 298 298 298 298 299 298 298 298 298 298 298 298 298 298 297 288 290 290 287 276 281 292 290 294 293 291 290 288 288 286 284 277 274 275 281 275 277 276 282 284 281 280 285 288 292 293 295 296 296 296 297
296 297 297 298 298 298 298 298 299 298 298 298 298 298 298 298 298 295 291 291 295 288 278 279 288 290 291 291 290 290 289 286 283 277 275 276 280 279 280 280 277 283 281 279 278 285 285 286 291 296 292 294 296 295
296 297 297 298 298 298 298 298 298 298 298 298 298 298 297 298 298 292 286 291 294 295 285 273 286 286 288 289 288 287 287 285 284 281 279 281 284 280 275 275 281 284 286 287 284 289 290 290 294 296 294 294 297 294
297 297 297 297 298 298 298 298 298 298 298 297 298 298 298 298 293 287 286 292 296 292 284 276 276 286 291 290 285 285 287 285 284 282 281 282 282 284 280 275 280 283 286 287 288 287 285 288 291 295 295 296 297 294
297 297 297 296 297 298 298 298 297 298 298 298 298 298 298 297 295 289 291 298 297 289 287 275 275 277 287 279 278 283 281 285 285 283 284 282 283 283 277 282 283 285 286 287 288 292 292 292 294 294 296 296 295 291
297 297 297 296 296 298 298 298 298 299 298 296 297 296 292 289 285 288 297 298 296 287 275 276 272 268 285 279 280 282 285 280 283 281 281 282 280 277 281 283 284 285 285 286 289 291 291 291 292 292 293 292 291 289
297 297 297 296 297 298 298 298 298 296 297 297 293 288 283 289 298 295 290 285 285 282 282 278 279 275 279 276 279 278 282 280 278 281 283 281 279 285 286 286 286 287 287 288 288 287 289 290 290 291 292 293 292 291
296 296 297 296 295 297 298 297 297 296 296 291 286 285 292 297 290 286 280 277 278 276 280 280 280 277 284 277 279 281 277 280 276 280 280 277 278 282 288 287 288 287 287 289 290 291 292 291 290 290 290 291 291 290
297 296 296 296 296 296 296 295 295 294 293 293 291 292 290 287 282 278 276 278 278 276 280 278 280 282 283 286 279 281 279 280 274 280 278 277 280 286 287 287 287 287 291 291 292 291 291 292 291 290 288 287 286 286
295 296 296 296 295 295 294 295 295 296 295 293 289 283 281 279 271 271 268 275 272 279 280 280 280 281 283 284 280 279 275 273 281 273 275 279 284 288 289 290 290 289 288 289 288 287 287 286 285 284 283 285 285 284
294 294 296 296 296 296 295 294 294 293 289 281 278 268 272 271 275 276 276 279 281 281 282 282 280 280 281 279 280 273 276 277 271 270 274 281 285 286 288 289 287 284 283 283 284 284 283 282 282 283 284 285 285 285
293 293 294 294 296 297 296 296 295 293 288 281 281 272 275 280 281 282 283 283 284 286 283 280 282 281 278 276 278 277 272 270 275 274 276 282 284 284 283 285 285 284 285 284 285 283 283 283 283 283 284 285 285 285
293 292 291 294 295 297 297 295 293 290 286 284 282 277 280 279 281 284 282 280 286 285 286 285 279 278 276 278 276 272 275 272 272 277 280 282 284 285 285 286 286 285 285 284 284 284 284 284 283 282 283 283 284 283
291 288 295 295 295 295 295 292 289 285 283 282 278 282 280 280 280 281 285 283 289 284 280 282 277 277 280 276 276 278 269 274 276 279 280 284 285 285 286 285 283 283 284 284 284 284 283 284 283 284 283 284 285 284
288 290 293 293 293 291 289 291 286 284 280 281 278 281 282 282 281 283 285 287 287 284 283 280 283 278 275 275 274 280 283 284 280 282 285 285 286 285 286 286 284 284 285 283 285 285 284 284 285 285 285 285 284 284
291 292 291 291 291 287 284 284 286 281 280 282 283 284 283 282 285 285 285 288 289 290 286 283 278 277 278 282 283 284 284 284 282 283 282 286 285 284 285 285 286 286 286 286 285 284 284 285 284 285 285 285 283 283
292 292 293 292 291 284 281 283 288 283 280 281 282 282 282 281 283 283 284 287 287 285 282 280 279 280 283 284 285 284 283 283 284 280 280 285 285 286 284 284 283 286 285 286 286 285 285 284 283 283 284 284 283 283
290 290 292 291 287 286 283 282 283 284 283 281 283 282 280 282 281 281 283 286 283 281 280 283 283 284 285 284 286 284 285 284 282 281 281 280 281 282 284 284 284 285 283 284 284 284 283 283 283 283 283 284 283 285
289 292 289 289 284 283 281 284 281 284 283 282 281 282 279 276 277 280 285 281 281 280 281 282 284 285 284 283 283 285 284 283 283 282 281 282 280 283 283 282 283 279 279 279 283 284 284 285 284 282 281 284 283 283
290 289 286 286 280 279 278 285 280 281 277 279 280 279 277 278 280 285 278 280 279 281 284 285 284 285 283 285 285 285 285 284 281 281 281 280 280 279 280 280 282 278 276 280 283 285 284 285 285 283 282 284 283 283
290 284 279 280 281 277 281 277 281 280 280 279 279 277 278 278 282 279 278 280 283 284 284 284 284 283 283 283 280 280 282 283 280 279 280 280 279 280 280 280 281 284 284 284 283 282 283 285 283 278 282 283 283 283
280 278 279 273 280 276 275 276 277 278 275 277 276 275 276 281 275 276 276 279 281 281 282 282 282 281 277 277 279 280 283 282 280 279 278 281 280 280 279 279 279 283 283 283 283 284 285 285 285 284 284 283 282 282
273 278 274 276 277 276 277 274 274 275 276 274 276 279 279 276 273 272 278 281 281 281 280 280 279 278 279 280 278 279 280 283 282 278 280 282 281 277 275 278 274 276 280 280 280 284 284 281 283 283 283 280 282 281
274 275 279 282 280 278 276 278 280 277 274 273 275 275 275 272 270 278 280 282 281 282 281 281 280 279 279 279 281 281 281 281 281 281 281 281 282 282 280 279 279 279 279 281 282 285 284 283 283 282 284 282 282 281
277 276 271 275 277 279 275 275 274 274 275 278 278 272 272 272 273 278 280 281 281 281 281 280 281 281 280 281 279 280 278 279 280 280 279 280 280 279 278 281 281 280 283 282 282 284 284 283 283 283 282 282 285 285
275 275 276 274 273 275 275 274 274 276 276 275 272 272 273 277 279 279 279 280 280 279 275 273 273 275 277 280 281 281 277 275 274 269 270 274 275 277 282 282 283 282 283 284 284 284 285 284 284 284 284 284 284 284
273 275 271 271 269 270 274 276 274 276 277 277 277 276 276 277 276 278 278 278 276 276 276 276 276 277 277 272 272 275 274 280 275 276 275 273 275 279 282 283 282 283 284 284 283 282 282 281 282 281 280 280 282 281
275 272 270 270 268 271 274 275 275 274 272 271 271 270 270 273 274 275 275 274 274 272 271 271 271 275 274 275 274 273 268 269 274 277 273 274 277 279 281 283 283 283 283 283 283 282 279 280 280 280 280 275 273 276
270 266 267 263 266 270 273 272 268 266 267 269 270 269 268 267 271 271 273 271 269 268 267 269 270 271 276 277 275 272 273 275 276 276 274 275 277 278 279 282 282 282 280 279 282 280 279 277 277 278 274 275 273 270
267 267 267 266 268 266 265 266 265 264 264 264 267 273 268 268 268 271 273 274 271 269 269 270 272 274 273 276 273 273 274 274 271 276 276 277 277 278 279 281 281 281 282 282 281 278 276 276 275 273 275 272 270 270

GFSWCAN_sfc_thetae_168.txt.gz
Theta_e
297 297 297 296 296 297 298 298 298 297 297 298 298 298 297 297 297 290 286 290 286 276 283 287 288 283 284 282 277 282 280 281 278 273 275 275 275 277 276 279 278 278 278 278 280 278 276 291 290 283 286 289 291 290
298 298 297 296 296 296 296 297 298 298 298 298 298 298 298 297 297 294 283 290 293 283 283 289 290 291 289 288 284 283 281 282 283 277 276 278 277 277 277 273 283 275 280 278 281 278 287 288 288 293 293 291 291 290
298 297 296 297 297 298 298 298 297 297 298 298 298 297 297 297 297 294 286 286 286 279 281 283 284 289 292 291 291 281 283 286 283 285 277 275 269 275 272 274 278 281 285 280 281 284 284 287 290 290 290 292 293 295
298 296 296 297 297 297 298 298 298 298 298 298 298 298 298 298 297 295 287 287 287 288 280 279 291 288 292 291 289 289 287 286 285 282 277 274 274 279 273 276 274 278 281 278 278 283 285 286 288 288 289 292 294 295
297 296 297 297 297 298 299 298 298 298 298 298 298 297 297 298 298 292 288 288 290 284 279 278 286 289 289 288 288 288 286 283 280 275 273 272 277 277 278 278 276 281 279 276 276 283 285 284 288 290 289 290 293 293
296 296 297 297 297 298 298 298 298 298 299 298 298 298 298 298 296 287 282 287 291 292 284 274 283 285 287 287 286 285 285 283 282 277 276 279 281 278 274 273 280 282 283 284 281 285 286 287 289 291 291 292 294 294
297 296 297 297 297 298 298 298 298 299 298 298 298 298 298 298 289 285 284 292 293 289 282 274 274 283 288 286 280 282 283 280 280 276 275 281 281 283 279 275 281 283 284 284 285 285 284 287 285 290 293 294 296 295
297 296 296 296 297 298 297 298 298 298 298 298 298 298 298 297 295 289 290 297 294 290 287 274 274 277 284 272 274 277 276 275 277 280 279 279 281 281 276 281 283 284 286 285 285 286 286 287 289 291 293 293 293 292
297 297 295 297 298 297 298 298 298 298 298 297 297 297 293 290 286 288 295 297 294 288 277 275 271 266 280 274 272 278 279 276 278 278 281 281 279 276 280 282 283 284 284 284 286 286 286 286 289 291 293 292 291 290
297 296 295 297 298 298 298 298 298 298 297 297 293 288 282 287 296 294 289 285 285 285 282 279 278 271 277 271 273 271 280 279 275 280 283 279 278 283 285 286 287 287 286 287 283 282 286 288 289 290 291 293 293 292
296 296 295 295 296 297 296 296 296 297 295 290 285 284 292 297 290 287 279 279 279 277 278 279 278 275 279 272 274 280 274 274 274 274 278 275 278 282 286 288 288 286 287 286 287 288 291 291 290 289 289 290 291 291
296 296 296 296 296 295 295 295 296 294 292 290 289 292 291 285 279 277 275 278 277 275 278 277 277 278 279 283 279 281 277 277 273 279 276 276 280 285 287 287 287 286 286 287 290 291 291 289 287 287 286 286 286 284
294 295 296 296 295 295 294 294 294 295 295 293 288 283 279 278 271 271 266 275 272 277 277 280 280 281 284 284 280 280 273 270 279 270 272 277 283 287 288 289 289 287 286 287 286 286 285 283 283 283 283 283 285 283
293 293 294 295 296 295 294 294 294 293 289 281 277 270 272 266 274 275 275 275 279 280 280 279 278 280 282 281 279 273 274 275 269 270 274 278 282 283 285 286 284 283 283 283 284 283 282 281 281 282 283 284 284 284
293 293 293 293 294 296 296 295 295 289 284 280 280 272 273 277 278 277 280 281 283 285 283 279 280 279 280 278 278 276 270 268 274 273 277 280 283 283 283 284 284 283 283 283 284 282 282 283 283 283 283 284 284 283
293 292 290 293 294 296 296 295 292 290 286 283 282 277 278 276 275 276 282 282 285 285 285 284 277 278 276 278 276 271 274 271 270 274 279 282 284 285 285 285 285 285 283 283 284 284 283 283 283 282 283 283 283 283
291 287 292 295 294 295 296 292 289 285 283 281 278 278 277 277 278 278 279 281 287 284 279 281 277 276 280 276 276 278 273 276 282 282 284 284 284 285 285 285 283 283 283 284 284 285 283 283 282 284 283 284 284 283
288 289 293 294 292 291 289 290 286 284 280 280 276 278 280 279 277 280 282 284 286 283 282 279 283 277 272 274 272 278 281 283 283 283 281 282 285 284 285 285 284 284 284 284 285 285 285 284 284 284 284 284 283 283
290 291 292 292 291 287 282 283 285 280 280 278 279 280 281 280 283 283 283 285 287 289 285 283 279 276 276 281 282 283 284 284 279 279 279 284 285 284 284 285 285 285 285 285 285 285 284 284 285 285 285 284 279 280
292 292 292 292 291 284 280 280 287 282 280 280 280 280 282 280 281 280 282 283 286 284 282 281 280 282 282 283 284 284 284 283 283 278 277 280 283 284 286 284 282 284 283 284 284 285 285 284 283 282 281 282 281 280
289 290 292 291 286 285 281 280 281 283 282 280 281 280 279 279 279 279 279 283 282 281 280 282 283 283 284 283 284 283 281 281 279 279 279 279 281 281 283 285 282 282 280 279 278 282 283 283 282 285 280 279 279 279
287 291 288 288 283 282 280 281 280 281 281 282 281 281 279 275 276 278 283 282 281 281 283 283 283 283 284 283 283 284 283 283 282 281 277 279 278 278 279 279 280 278 278 277 278 279 283 285 284 285 284 281 283 282
290 288 285 285 280 278 276 283 279 280 276 277 280 278 276 275 278 283 278 280 279 281 281 284 284 285 282 283 284 284 284 283 281 280 280 280 280 277 278 278 277 275 276 278 279 281 281 283 284 284 283 283 283 282
290 284 276 278 279 274 280 277 281 280 280 278 278 275 277 278 282 280 277 279 282 284 283 283 283 282 282 282 280 280 281 281 278 277 277 278 277 278 279 279 279 279 280 280 279 280 282 282 283 282 282 282 282 282
279 275 276 272 277 276 274 275 276 277 272 276 276 275 277 281 277 276 276 279 280 280 281 282 282 281 278 277 277 278 281 281 278 277 275 279 277 276 277 278 278 279 280 276 274 273 276 283 285 283 283 283 281 281
272 276 273 273 273 275 276 273 273 273 276 274 275 278 279 276 272 272 277 278 279 279 279 279 278 278 278 279 277 277 279 280 280 276 279 279 278 273 273 276 277 278 279 281 278 278 272 276 281 279 282 283 282 281
271 271 277 280 278 278 274 275 279 276 272 273 275 274 274 271 271 275 279 280 279 279 281 280 280 279 279 279 280 280 279 281 280 279 280 280 280 279 279 278 277 279 280 280 282 280 279 282 279 281 281 279 283 280
274 273 268 273 273 277 273 274 272 270 271 273 273 272 271 271 269 276 279 280 281 281 280 281 282 282 280 279 279 279 277 275 275 275 274 275 275 277 279 279 282 282 283 283 283 283 282 282 282 280 281 278 280 282
272 272 271 266 267 271 271 270 270 273 274 273 269 271 272 276 275 276 278 279 280 279 276 276 277 276 276 276 277 276 275 273 270 267 266 266 267 272 276 277 280 282 282 280 282 282 282 283 283 283 282 282 284 284
266 272 267 263 263 266 268 272 270 272 274 276 276 276 276 274 274 275 274 273 271 270 270 271 271 269 264 262 264 266 266 265 270 269 269 267 272 274 276 277 277 282 282 282 282 282 282 281 281 279 278 279 280 279
270 272 266 265 260 264 266 270 271 273 272 271 270 269 269 270 272 272 270 267 264 264 267 267 267 269 270 269 266 263 266 268 268 270 272 267 269 272 274 276 277 282 282 281 280 281 279 279 279 277 276 278 276 272
261 264 262 257 262 265 267 265 259 259 262 259 263 260 261 267 267 269 271 264 267 266 264 265 266 267 271 271 270 269 267 267 270 272 272 272 273 274 275 277 278 280 280 280 280 280 278 276 276 277 275 274 271 269
256 255 261 258 261 258 259 259 259 258 255 257 261 263 264 268 266 268 271 269 267 267 266 267 269 268 271 270 269 269 269 270 271 271 271 272 272 275 276 277 279 279 279 278 280 279 275 273 272 272 272 274 271 268

GFSWCAN_sfc_thetae_171.txt.gz
Theta_e
297 298 298 297 297 296 296 298 298 297 297 297 298 298 297 297 296 289 285 292 285 276 282 285 286 282 282 281 275 281 279 279 276 273 274 274 275 277 277 279 278 277 277 278 279 277 276 287 287 283 286 289 289 289
298 298 297 297 296 297 297 296 297 298 298 297 297 298 298 297 297 292 282 290 290 282 281 287 288 289 288 287 283 282 279 281 279 275 276 276 276 276 277 273 282 275 279 277 279 278 287 287 286 289 289 287 287 287
297 297 296 296 297 297 297 298 298 297 297 298 298 297 298 298 297 292 284 285 284 278 280 281 282 288 291 290 290 281 282 285 283 283 277 275 272 275 272 274 277 281 285 280 280 282 284 287 288 289 289 288 288 289
297 297 296 296 297 297 297 297 297 298 298 298 298 297 297 297 297 294 286 285 285 284 279 279 289 287 291 290 289 288 286 285 284 282 276 272 273 279 274 276 274 278 280 279 279 281 283 285 286 288 288 289 289 290
297 296 296 296 297 298 297 298 298 298 298 297 298 298 297 297 297 290 286 287 288 280 276 278 285 288 289 288 288 287 286 283 280 274 271 272 276 276 277 277 276 280 278 275 275 282 282 283 286 288 287 287 289 290
297 296 296 297 297 297 298 298 298 298 298 298 298 298 297 298 296 289 280 284 289 288 282 274 282 283 285 286 285 284 285 282 281 276 275 278 280 278 274 273 279 281 281 282 280 284 284 285 286 287 286 287 289 291
296 296 296 297 298 298 297 298 297 298 298 298 298 298 297 297 288 279 276 288 292 288 276 274 274 282 286 285 278 281 282 279 278 274 274 280 280 282 275 274 280 283 284 284 285 284 281 283 282 286 288 289 293 292
296 296 296 298 297 297 297 298 298 298 298 298 298 297 297 296 293 284 290 296 294 286 285 273 275 277 282 270 272 274 273 273 272 275 277 277 280 281 276 280 282 284 284 284 285 286 284 285 285 286 287 289 289 289
296 296 296 298 298 297 297 298 298 298 298 298 297 297 293 289 285 285 295 296 294 287 280 278 271 268 280 273 271 274 278 270 276 274 277 281 279 276 279 281 282 284 284 285 286 286 286 284 284 285 286 286 288 289
295 295 295 297 297 298 298 298 298 298 297 297 291 286 282 287 295 295 290 286 285 285 284 278 278 271 276 270 269 269 277 278 275 276 283 279 278 283 284 285 286 286 287 287 284 282 282 282 283 284 287 291 291 291
295 295 295 295 296 297 297 297 297 297 295 288 285 284 288 296 289 285 278 279 280 277 278 280 279 274 279 271 271 275 273 273 273 274 279 275 276 282 287 286 286 285 286 286 286 286 285 286 287 288 289 290 289 289
293 295 295 295 295 295 297 296 296 292 289 290 290 292 291 286 280 276 274 277 276 275 277 276 277 277 276 279 277 280 278 277 272 279 277 272 281 285 287 286 286 286 286 286 287 286 288 288 287 286 286 285 285 285
293 293 295 295 295 294 294 295 295 296 295 290 285 282 280 279 268 270 265 273 272 278 277 277 277 277 279 282 282 280 274 271 278 270 272 277 282 286 287 286 285 285 284 285 284 284 284 283 283 283 282 282 284 284
292 293 293 294 295 295 294 293 294 294 291 280 278 272 275 267 272 273 274 276 279 279 278 278 277 277 280 280 280 272 274 275 268 268 273 277 281 283 283 285 284 282 282 282 282 282 281 281 281 282 282 283 283 283
292 293 293 292 293 295 295 295 295 291 286 281 280 269 271 274 273 272 275 280 283 283 281 281 280 278 277 273 278 276 270 266 272 272 277 282 284 284 285 285 285 284 282 282 283 282 282 283 283 282 283 283 283 283
292 292 290 292 293 294 295 295 291 289 285 282 281 277 276 274 268 271 273 275 284 285 285 284 279 278 275 277 275 271 273 270 270 277 283 283 282 282 284 285 284 284 283 283 283 283 283 282 282 282 283 283 283 283
291 287 291 293 295 294 296 291 288 284 282 280 278 276 274 275 276 277 279 280 286 284 278 281 277 276 280 275 275 277 268 274 275 282 284 284 284 284 284 284 284 283 283 283 284 284 284 284 282 284 283 283 284 284
288 290 292 293 291 291 288 288 285 283 280 281 278 277 279 278 276 278 281 283 285 284 281 279 282 276 272 272 267 276 281 283 283 283 284 285 285 285 284 285 285 284 284 284 285 285 284 284 284 284 284 284 283 282
290 290 292 292 291 286 280 279 285 279 279 279 279 280 281 279 281 283 284 284 285 288 284 283 278 277 275 279 280 281 281 284 281 279 280 284 285 284 284 284 284 285 285 285 285 285 286 285 284 283 284 284 282 281
291 292 292 291 290 285 280 280 286 281 279 280 281 280 281 279 282 283 283 283 285 284 281 280 278 278 279 282 284 283 283 282 279 276 276 277 280 282 283 285 284 284 283 283 282 280 283 284 285 285 283 284 282 281
289 290 290 290 286 285 282 280 280 281 281 280 281 280 280 281 281 281 280 281 283 282 280 280 280 284 285 284 284 282 281 281 278 278 277 275 278 278 283 282 282 282 280 278 277 281 283 282 283 284 284 284 282 281
287 290 288 288 282 281 279 281 279 281 281 280 281 282 280 275 277 279 282 281 281 279 280 281 282 284 284 284 283 282 282 282 282 280 277 278 277 277 277 277 277 275 275 276 277 279 279 280 280 281 282 284 283 282
289 287 286 284 279 277 274 282 278 279 275 277 280 278 276 275 279 284 278 280 278 280 280 282 285 286 284 284 284 283 283 282 280 279 278 278 278 274 277 277 276 272 275 278 278 278 277 276 279 280 283 283 282 281
290 283 278 278 276 271 279 277 280 279 280 278 277 275 276 275 281 280 277 280 282 283 280 282 283 281 281 281 279 279 280 280 278 275 276 277 275 276 277 277 277 278 278 280 279 277 275 276 277 281 282 282 282 281
279 275 275 269 276 274 272 274 275 277 272 275 275 274 275 281 277 276 277 278 278 278 280 281 281 281 278 276 277 279 281 281 277 276 274 278 275 274 274 275 275 276 278 274 273 275 274 274 275 276 279 282 280 280
272 275 274 274 273 274 275 272 274 274 275 273 275 278 279 276 274 273 275 275 276 277 278 278 278 279 279 280 278 278 278 280 279 275 277 279 277 276 276 274 273 275 278 280 279 279 279 278 271 277 274 281 281 280
266 267 274 278 275 276 275 275 277 272 269 268 270 270 273 269 269 273 278 279 278 279 281 281 281 281 280 280 280 281 281 280 279 279 279 278 278 279 279 273 273 277 281 282 281 281 280 280 281 279 279 281 281 281
270 271 263 268 268 273 270 270 269 268 268 270 270 268 269 269 269 274 276 278 280 281 280 280 280 280 280 279 279 277 275 274 273 273 273 273 273 272 272 273 274 277 278 280 280 278 281 281 281 281 281 279 279 276
263 268 268 260 263 268 268 267 267 270 272 270 267 269 272 273 272 272 274 275 276 275 272 272 273 274 274 275 275 273 272 271 267 263 261 260 260 266 272 275 276 274 277 281 281 281 281 281 281 280 280 281 282 283
260 267 263 260 258 260 265 267 267 269 270 272 273 275 275 271 271 273 271 270 268 267 268 268 269 270 268 269 268 268 264 262 265 265 263 263 269 270 271 272 273 274 275 279 280 280 280 279 279 280 281 279 279 278
267 261 265 265 258 264 264 263 264 265 264 265 268 269 269 268 270 271 269 267 265 265 266 266 266 268 267 268 265 263 263 264 267 268 267 266 266 266 271 272 273 275 276 279 279 278 278 279 274 274 276 277 278 275
256 262 256 259 262 263 257 255 255 252 255 253 258 257 264 265 265 267 269 266 265 265 264 264 263 264 268 268 268 268 268 268 269 270 269 269 268 269 271 272 274 275 276 277 278 277 278 277 272 271 275 276 276 274
253 252 250 251 257 259 258 256 258 255 252 253 258 262 268 267 264 267 270 267 265 263 263 263 265 265 267 266 264 268 268 266 267 268 267 268 265 267 268 271 273 274 275 276 278 277 277 273 270 270 269 270 273 272

GFSWCAN_sfc_thetae_174.txt.gz
Theta_e
297 298 298 297 297 296 296 296 297 298 297 297 297 298 297 297 296 288 285 289 285 276 281 284 285 281 281 279 275 280 279 279 276 275 273 273 274 277 276 279 278 277 277 277 278 276 274 286 286 281 285 288 287 286
297 297 298 296 296 296 297 297 297 297 298 297 297 298 298 297 297 292 281 288 290 283 282 286 287 288 285 285 281 281 279 279 278 273 273 274 273 274 277 272 281 273 278 276 279 278 286 287 286 289 289 287 287 286
297 297 297 296 296 296 297 297 297 298 297 298 298 297 298 298 297 292 283 284 285 278 280 281 281 285 290 289 288 280 280 283 282 281 274 273 272 273 269 273 277 280 284 279 279 280 281 286 288 289 290 289 288 288
297 297 296 296 296 296 297 297 297 297 298 297 298 298 297 298 297 292 284 284 284 280 270 276 287 285 289 289 287 287 285 284 282 281 275 272 272 278 272 274 272 278 279 278 278 280 282 283 284 286 287 289 287 288
296 297 296 296 296 296 297 297 297 297 298 298 297 298 297 297 297 289 285 285 286 279 270 274 282 285 288 287 286 286 285 282 280 274 272 272 276 276 276 276 275 279 277 274 274 281 281 281 284 286 285 286 286 286
295 297 296 296 297 298 298 298 298 298 298 298 297 298 297 297 295 290 282 284 287 285 274 269 280 282 283 285 285 284 283 281 280 275 275 277 280 278 274 272 279 279 280 281 279 282 282 283 284 285 285 285 287 286
295 296 296 296 298 297 297 297 298 298 298 298 298 298 297 297 290 279 278 283 291 285 277 274 273 281 284 283 277 280 282 277 277 272 273 277 278 279 274 273 280 283 284 284 284 283 281 282 281 284 285 285 287 287
294 296 296 297 298 297 298 297 298 298 298 298 298 298 296 296 293 285 292 295 290 283 282 272 273 275 281 270 271 276 270 272 271 273 273 273 275 276 275 280 282 283 284 283 284 286 285 286 286 285 285 285 284 284
294 296 295 297 297 297 297 298 298 298 298 298 297 296 292 289 284 283 296 295 291 282 276 277 271 268 280 274 274 273 278 270 275 271 274 277 276 274 278 281 282 282 283 283 285 286 287 285 284 285 285 284 283 283
294 295 295 296 297 297 297 297 298 298 298 296 291 285 282 286 295 294 289 284 284 285 284 275 279 274 279 271 270 269 277 273 274 276 280 277 278 282 284 285 285 285 285 285 282 282 282 283 284 284 283 284 285 287
293 295 294 295 297 297 297 297 297 296 294 289 284 284 287 295 289 283 279 279 278 275 279 279 278 275 279 272 273 273 270 271 273 273 276 275 276 281 286 287 286 285 284 286 286 286 285 284 283 284 285 289 289 287
293 294 294 294 295 296 297 297 296 290 287 288 290 292 291 286 280 279 273 276 276 274 277 275 276 277 276 278 272 276 275 277 272 279 276 271 278 284 287 286 285 283 284 284 285 285 284 284 284 284 284 283 283 283
292 293 294 294 294 294 295 296 295 295 294 290 285 282 278 279 268 269 265 272 272 277 277 275 273 274 277 277 277 279 275 272 278 273 272 276 281 285 284 285 285 285 285 284 283 283 283 283 283 282 282 282 283 283
292 292 292 293 294 294 293 294 296 294 291 279 277 271 273 268 274 272 273 273 277 278 278 277 275 278 280 279 279 276 276 274 268 269 272 275 281 283 285 285 285 284 283 282 283 283 282 282 282 283 283 283 283 283
292 292 292 292 292 294 294 293 294 291 286 281 279 267 271 274 272 269 271 274 278 282 281 277 278 277 277 274 278 276 269 267 271 271 273 283 283 283 283 284 284 284 282 282 283 282 282 282 282 282 283 283 283 283
292 292 289 292 293 292 294 294 291 288 285 282 280 277 275 272 268 267 272 273 280 280 284 282 277 277 276 277 274 271 272 269 269 270 278 283 283 283 284 284 284 284 283 283 283 282 282 282 282 282 283 283 283 283
290 287 291 293 294 294 294 291 288 284 280 279 275 274 274 274 274 275 277 279 283 283 278 280 276 276 280 276 275 277 270 271 270 281 283 284 284 284 284 284 284 283 283 282 283 283 283 283 283 284 283 283 283 283
286 289 292 292 291 291 289 285 283 282 279 280 278 276 277 278 275 275 279 283 284 282 280 279 281 277 271 271 268 276 280 281 283 279 283 285 284 284 285 284 285 285 285 284 285 285 285 284 283 283 284 284 283 282
288 290 291 292 290 285 279 279 284 279 280 279 279 280 281 279 281 282 283 283 285 286 282 282 278 275 275 278 274 277 282 283 282 278 279 284 285 284 283 284 284 285 285 284 284 284 284 285 284 285 284 284 282 282
291 290 291 291 289 284 280 280 284 280 278 279 280 279 281 280 281 281 282 283 284 284 281 279 278 279 278 277 280 282 284 284 281 278 277 276 278 282 283 283 282 283 283 282 280 281 282 281 282 283 283 283 283 282
288 289 291 290 285 285 282 280 279 281 281 279 281 280 279 280 280 280 281 284 282 281 280 280 278 278 285 284 285 285 283 283 280 278 277 274 276 278 282 280 279 281 278 277 277 278 278 278 279 281 281 283 284 283
286 290 287 288 283 282 280 280 278 280 280 279 279 281 279 277 278 279 281 281 281 280 280 280 279 282 284 284 284 284 283 282 282 280 278 278 276 275 275 275 276 274 275 274 275 278 278 279 279 278 275 280 282 283
288 287 284 284 279 277 273 281 276 278 274 275 279 277 276 276 279 283 279 280 279 280 281 281 282 285 285 285 284 283 283 281 280 279 278 277 277 273 274 274 274 271 274 276 277 276 275 274 275 278 281 281 282 278
289 281 277 278 277 271 278 276 279 277 278 276 276 275 277 276 280 279 276 279 280 283 282 282 284 283 283 282 279 280 281 281 278 274 275 276 274 274 275 274 275 275 276 278 277 277 279 279 280 281 281 281 272 276
277 275 275 271 277 275 274 274 275 276 273 275 275 273 274 279 276 276 275 273 275 276 278 281 281 282 280 278 279 279 281 281 278 276 275 277 275 275 274 274 273 275 277 279 278 278 279 279 277 276 275 278 280 276
269 272 271 269 267 270 271 269 270 271 272 271 270 272 275 276 274 270 272 274 275 276 277 278 278 279 279 280 279 278 279 281 280 275 277 278 276 276 276 268 270 271 275 279 278 278 278 279 279 275 278 279 279 281
263 266 272 274 271 272 270 273 273 270 266 265 267 267 270 267 267 272 276 276 277 279 280 280 280 280 279 279 279 278 278 278 278 278 279 276 277 277 273 267 269 272 276 278 278 279 278 278 279 280 280 275 279 278
264 267 257 264 265 270 265 266 264 263 264 269 267 265 266 268 267 272 273 274 275 278 277 277 276 278 278 277 276 276 275 274 274 274 273 273 272 269 270 271 274 276 274 276 277 279 279 279 279 279 279 279 279 272
259 263 265 254 256 261 267 263 264 268 270 268 261 264 269 271 270 271 273 272 274 273 271 270 271 273 274 273 272 271 271 271 270 266 263 262 261 265 269 270 272 271 272 274 276 280 280 280 280 279 280 280 280 281
258 265 260 256 257 260 261 263 260 263 267 269 270 271 271 270 270 272 270 269 267 267 267 266 268 269 269 268 268 269 267 268 267 265 261 261 266 269 268 266 268 271 272 273 275 278 280 279 278 275 274 276 278 279
265 257 257 260 259 262 264 256 255 259 256 255 258 264 266 266 269 269 267 265 264 265 266 266 266 267 267 266 264 262 264 264 267 269 268 267 266 265 266 268 270 271 272 273 275 276 277 277 276 273 270 271 274 276
252 254 253 254 256 259 255 251 251 249 250 250 255 253 261 261 259 263 266 263 262 264 264 264 264 265 267 267 266 266 266 266 266 266 266 266 265 264 265 266 268 270 271 271 273 275 277 276 276 272 269 270 274 275
252 248 247 248 253 256 256 255 256 254 251 253 260 263 267 264 261 263 266 264 263 263 263 264 265 265 266 266 266 267 268 268 267 266 265 264 262 265 264 264 265 269 271 271 273 274 274 275 274 273 271 269 270 271